Location: Ettringen
(48.1054°N, 10.6545°E)
Time: 07:31:11
(UTC+00:00)

Cosmos 1975 Rocket - Pass Details

Date: 18 November 2025
Orbit: 597 x 626 km, 82.5° (Epoch: 06 December)

Event Time Altitude Azimuth Distance (km) Brightness Sun altitude
Rises 16:04:00 0° 355° (N) 2,872 6.3 -5.0°
Reaches altitude 10° 16:06:17 10° 1° (N) 1,967 5.4 -5.4°
Maximum altitude 16:10:31 49° 76° (ENE) 797 3.3 -6.0°
Drops below altitude 10° 16:14:45 10° 152° (SSE) 1,969 5.6 -6.7°
Sets 16:17:01 0° 158° (SSE) 2,874 6.5 -7.0°
